Location: Milo
(50.5667°N, 112.8833°W)
Time: 07:06:30
(UTC+00:00)

N. Korean satellite - Pass Details

Date: 08 December 2021
Orbit: 446 x 491 km, 97.3° (Epoch: 18 January)

Event Time Altitude Azimuth Distance (km) Brightness Sun altitude
Rises 12:13:56 0° 23° (NNE) 2,465 10.4 -28.3°
Reaches altitude 10° 12:16:12 10° 36° (NE) 1,585 9.5 -27.9°
Maximum altitude 12:19:07 26° 95° (E) 913 8.6 -27.5°
Drops below altitude 10° 12:22:02 10° 155° (SSE) 1,574 9.5 -27.0°
Sets 12:24:16 0° 168° (SSE) 2,443 10.3 -26.7°
